Location: Bothwell
(41.7170°N, 112.2589°W)
Time: 01:04:57
(UTC+00:00)

Vanguard 1 Rocket - Visible Passes

Search period start: 12 May 2026 00:00
Search period end: 22 May 2026 00:00
Orbit: 655 x 4212 km, 34.3° (Epoch: 11 May)

Date Brightness Start Highest point End Pass type
(mag) Time Alt. Az. Time Alt. Az. Time Alt. Az.
12 May 10.5 02:41:16 10° W 02:57:41 65° SSW 03:23:09 10° ESE visible
12 May 10.8 05:08:57 10° W 05:28:31 44° SSW 05:41:08 29° SSE visible
12 May 11.4 07:44:09 10° W 07:57:14 17° SW 07:58:14 17° SW visible
13 May 10.7 03:54:52 10° W 04:12:59 54° SSW 04:32:13 20° SE visible
13 May 11.1 06:25:14 10° W 06:42:51 28° SW 06:49:20 25° SSW visible
14 May 10.5 02:41:39 10° W 02:57:28 61° SSW 03:22:26 10° ESE visible
14 May 11.0 05:09:31 10° W 05:27:52 38° SW 05:40:29 26° S visible
14 May 11.5 07:48:48 10° WSW 07:56:23 12° SW 07:57:36 12° SW visible
15 May 10.7 03:55:19 10° W 04:12:33 48° SSW 04:31:40 19° SSE visible
15 May 11.3 06:26:44 10° W 06:42:03 22° SW 06:48:48 20° SSW visible
16 May 10.5 02:42:05 10° W 02:57:16 56° SSW 03:21:31 10° SE visible
16 May 11.1 05:10:18 10° W 05:27:15 32° SW 05:40:02 22° S visible
17 May 10.8 03:55:53 10° W 04:12:09 42° SSW 04:31:19 16° SSE visible
17 May 11.4 06:29:13 10° W 06:41:23 17° SW 06:48:27 15° SSW visible
18 May 10.6 02:42:35 10° W 02:57:05 51° SSW 03:20:22 10° SE visible
18 May 11.2 05:11:28 10° W 05:26:43 26° SW 05:39:48 17° S visible
19 May 11.0 03:56:39 10° W 04:11:48 36° SSW 04:31:11 13° SSE visible
19 May 11.6 06:34:22 10° WSW 06:40:50 12° SW 06:47:40 10° SSW visible
20 May 10.7 02:43:12 10° W 02:56:56 44° SSW 03:18:58 10° SE visible
20 May 11.4 05:13:15 10° W 05:26:16 21° SW 05:39:45 12° S visible
21 May 11.1 03:57:39 10° W 04:11:31 30° SW 04:30:45 10° SSE visible
